Lid_Strength_Index
12 12 12 12 13 13 13 14 13 13 13 14 14 15 15 15 15 14 14 13 14 14 14 15 15 14 14 14 13 13 13 13 15 13 12 11 12 12 11 10 10 9 9
14 14 14 14 14 14 14 14 14 14 14 15 15 15 15 15 15 14 15 14 15 15 15 15 15 14 14 13 13 13 13 13 13 15 13 13 13 12 11 11 10 9 9
13 14 14 14 15 15 15 15 14 15 15 16 16 16 16 15 15 14 14 15 15 15 15 15 15 14 14 14 13 14 13 13 13 14 14 13 12 11 12 11 11 11 10
14 14 15 15 15 15 15 15 16 16 16 17 17 17 16 15 15 15 15 16 16 15 14 14 14 14 14 14 14 14 13 14 13 13 13 13 12 12 11 12 12 10 11
14 15 15 15 15 16 16 16 17 17 17 18 17 17 16 16 14 15 15 16 16 16 14 14 13 13 13 13 13 13 13 13 13 14 13 12 12 12 12 11 12 12 12
14 15 15 16 16 17 17 17 17 18 18 18 17 17 17 16 14 13 15 16 15 15 15 14 14 14 13 12 12 11 11 12 13 12 12 13 12 11 11 13 13 14 14
15 15 16 16 17 17 18 18 18 18 18 18 18 17 18 17 14 14 14 16 15 15 15 15 14 14 14 13 12 11 11 9 9 11 12 12 11 11 12 13 13 13 13
15 16 17 17 17 18 19 19 19 19 18 18 18 18 18 17 15 14 13 15 15 15 15 15 15 14 14 13 12 12 11 11 10 10 10 10 11 11 11 12 14 14 11
16 16 17 18 19 19 20 20 19 19 19 19 18 20 21 20 16 14 14 16 15 15 15 14 14 13 12 10 11 11 13 12 9 9 9 9 9 9 9 14 14 15 14
16 16 17 18 20 20 19 20 19 20 19 19 19 21 21 23 17 14 14 16 20 16 15 13 13 12 11 9 10 11 11 12 10 15 15 13 12 12 9 12 13 18 18
17 18 19 19 20 20 20 20 21 21 21 21 21 22 23 21 20 15 14 15 15 16 14 14 13 11 10 9 9 10 10 10 14 20 18 16 15 13 12 12 11 14 16
17 19 20 20 20 21 22 22 22 22 22 22 24 23 21 20 18 15 14 13 13 14 14 13 12 9 9 9 10 9 9 11 11 13 13 13 12 14 11 12 14 15 14
19 20 22 22 20 20 21 22 22 23 22 23 22 23 23 20 20 16 15 13 13 13 12 12 10 9 9 9 10 10 15 17 14 11 11 12 14 13 13 14 16 16 16
20 21 21 21 21 21 21 21 22 23 23 22 23 23 23 22 21 20 18 14 13 12 12 13 10 11 11 12 15 15 15 17 17 17 16 15 14 15 16 16 18 16 20
20 21 21 21 21 22 21 21 22 22 22 24 24 23 24 25 21 15 15 14 12 11 11 11 13 16 20 19 19 19 19 19 19 18 19 18 17 16 16 17 18 21 21
21 21 21 22 22 22 22 23 19 19 17 16 16 19 20 15 14 13 12 11 11 11 12 14 16 21 20 20 21 20 20 20 20 19 21 20 18 17 16 17 19 22 22
19 20 21 21 22 23 23 23 24 22 18 17 15 14 14 15 14 13 12 12 12 14 21 23 24 22 22 21 21 21 21 20 21 20 21 21 20 20 19 18 18 18 20
19 20 21 21 22 23 24 24 25 25 25 26 19 16 15 15 14 14 14 18 25 26 28 28 27 27 25 24 23 23 22 22 22 22 21 21 20 20 20 20 20 22 23
21 22 22 23 24 24 25 26 27 28 28 29 29 21 22 15 15 16 18 29 28 29 30 29 29 29 27 27 26 26 26 26 24 25 22 22 19 19 20 21 19 20 22
23 24 25 26 27 27 26 27 27 27 26 26 26 25 28 27 27 29 31 31 31 31 30 30 30 31 30 30 30 29 27 26 23 23 21 21 20 20 19 20 21 22 23
24 28 27 29 27 27 27 26 25 25 25 25 24 24 19 23 24 26 26 29 27 26 28 30 31 31 31 31 30 29 26 23 24 23 23 23 21 21 21 21 22 24 25
25 28 28 28 28 27 27 26 25 24 25 24 25 26 15 23 26 26 25 25 27 28 29 29 29 29 29 29 29 28 26 25 25 24 24 23 22 22 23 22 23 24 25
25 26 27 28 26 26 26 26 25 24 24 25 25 24 27 26 25 25 25 27 28 28 28 29 28 28 28 27 25 25 25 24 25 27 27 26 25 24 25 25 25 26 27
25 24 23 23 24 24 24 24 24 24 25 26 26 26 24 25 25 24 24 26 27 29 29 27 27 26 26 26 26 26 26 25 27 26 26 26 26 25 26 27 27 26 25
24 23 22 22 23 23 22 22 24 23 24 24 24 24 24 24 24 23 24 27 27 27 26 26 25 25 25 25 25 26 26 21 25 26 28 27 25 26 26 26 28 28 29
24 23 22 22 22 22 22 23 22 23 24 24 24 24 23 22 22 23 23 27 27 26 26 25 25 25 25 24 24 23 23 20 22 23 26 26 25 25 26 28 29 29 28